Location: Key Biscayne
(25.6930°N, 80.1630°W)
Time: 13:32:46
(UTC-05:00)

Hubble Space Telescope - Visible Passes

Search period start: 23 November 2017 00:00
Search period end: 03 December 2017 00:00
Orbit: 537 x 541 km, 28.5° (Epoch: 22 November)

Date Brightness Start Highest point End Pass type
(mag) Time Alt. Az. Time Alt. Az. Time Alt. Az.
23 Nov 0.9 05:16:45 50° NW 05:17:32 61° N 05:21:37 10° E visible
24 Nov 0.7 05:07:10 66° NNW 05:07:21 67° N 05:11:28 10° E visible
25 Nov 0.9 04:57:36 67° ENE 04:57:36 67° ENE 05:01:19 10° E visible
26 Nov 1.5 04:48:02 50° E 04:48:02 50° E 04:51:08 10° ESE visible
27 Nov 2.3 04:38:28 35° ESE 04:38:28 35° ESE 04:40:56 10° ESE visible
27 Nov 2.4 06:14:26 10° W 06:17:48 24° SSW 06:21:10 10° SSE visible
28 Nov 2.9 04:28:56 24° ESE 04:28:56 24° ESE 04:30:41 10° ESE visible
28 Nov 2.7 06:04:36 10° WSW 06:07:31 19° SSW 06:10:27 10° SSE visible
29 Nov 3.5 04:19:26 16° SE 04:19:26 16° SE 04:20:23 10° ESE visible
29 Nov 3.0 05:54:59 10° WSW 05:57:14 14° SSW 05:59:28 10° S visible
30 Nov 4.0 04:09:56 10° SE 04:09:56 10° SE 04:10:01 10° SE visible
30 Nov 3.2 05:46:07 10° SW 05:46:56 10° SSW 05:47:45 10° SSW visible
02 Dec 3.0 19:07:21 10° S 19:09:07 14° SSE 19:09:07 14° SSE visible
